Regional Weather Roundup
Issued by NWS Cleveland, OH

Home | Current Version | Previous Version | Text Only | Print | Product List | Glossary Off
Versions: 1 2 3 4 5 6 7 8 9 10 11 12 13 14 15 16 17 18 19 20 21 22 23 24 25 26 27 28 29 30 31 32 33 34 35 36 37 38 39 40 41 42 43 44 45 46 47 48 49 50

000
ASUS41 KCLE 311110
RWRCLE
OHIO REGIONAL WEATHER ROUNDUP
NATIONAL WEATHER SERVICE WILMINGTON, OH
700 AM EDT MON AUG 31 2015

NOTE: "FAIR" INDICATES FEW OR NO CLOUDS BELOW 12,000 FEET WITH NO
SIGNIFICANT WEATHER AND/OR OBSTRUCTIONS TO VISIBILITY.

OHZ001>008-015>018-024>027-034-035-043-044-311200-
   NORTHWEST OHIO

CITY           SKY/WX    TMP DP  RH WIND       PRES   REMARKS
DEFIANCE       FOG       65  63  93 CALM      30.07R VSB 1/4
FINDLAY        CLEAR     64  62  93 SW5       30.07R FOG
TOLEDO EXPRESS MOCLDY    63  62  97 CALM      30.06R FOG
TOLEDO EXEC    CLEAR     66  63  90 SW3       30.07R FOG
LIMA           CLEAR     65  64  97 S3        30.08R FOG
$$

OHZ009>014-019>023-028>033-038-089-311200-
   NORTHEAST OHIO

CITY           SKY/WX    TMP DP  RH WIND       PRES   REMARKS
CLE-HOPKINS    PTCLDY    67  63  87 S5        30.09R
CLE-LAKEFRONT  CLEAR     72  64  76 S6        30.05R
CUY CO. ARPT   PTCLDY    70  66  88 W6        30.07
LORAIN-ELYRIA  CLEAR     64  62  93 S5        30.07R FOG
ASHTABULA      CLEAR     65  64  97 CALM      30.08R FOG
AKRON-CANTON   PTCLDY    66  63  90 SW6       30.09R
WOOSTER        CLEAR     63  62  97 CALM      30.10R
MANSFIELD      CLEAR     64  64 100 SW6       30.10R
YOUNGSTOWN     PTCLDY    66  63  90 CALM      30.09R
$$

OHZ042-051>053-060>062-070>072-077>081-311200-
  SOUTHWEST OHIO

CITY           SKY/WX    TMP DP  RH WIND       PRES   REMARKS
CINC-COVINGTON PTCLDY    65  64  97 S3        30.10R
CINC-LUNKEN    PTCLDY    63  63 100 CALM      30.10R FOG
HAMILTON       FOG       63  62  97 CALM      30.10R VSB 1/4
DAYTON         PTCLDY    67  67 100 SW6       30.11R
WRIGHT-PAT AFB CLEAR     65  65 100 E2        30.09R
DAYTON GENERAL CLEAR     66  64  93 CALM      30.10R FOG
WILMINGTON     CLEAR     64  62  93 S3        30.11R FOG
$$

OHZ036-037-039>041-045>050-054>059-063>069-073>076-082>088-311200-
  CENTRAL AND SOUTHEAST OHIO

CITY           SKY/WX    TMP DP  RH WIND       PRES   REMARKS
COLUMBUS       PTCLDY    67  66  97 SE5       30.09R
OSU AIRPORT    CLEAR     65  64  97 CALM      30.09R
BOLTON FIELD   CLEAR     62  62 100 S3        30.10R FOG
RICKENBACK AFB CLEAR     64  63  99 CALM      30.09R FOG
NEWARK         FOG       62  61  96 CALM      30.10R VSB 3/4
MARION         CLEAR     64  62  93 S3        30.10R FOG
LANCASTER      CLEAR     62  60  93 CALM      30.10S FOG
ZANESVILLE     MOCLDY    64  61  90 CALM      30.10R
NEW PHILLY     PTCLDY    63  62  97 CALM      30.11R
$$


USA.gov is the U.S. government's official web portal to all federal, state and local government web resources and services.